EW1710 Weather Reports


Display with metric or nautical units.
time (UTC)temp
F
wind
direction
speed
MPH
gust
MPH
rain 1hr
in
rain 24hr
in
rain mn
in
humidity
%
barometer
mb
20260903235008 68 157 1.0 1.0 0.00 0.84 0.84 96 1017.8
20260903234503 68 104 0.0 0.0 0.07 0.84 0.84 96 1017.8
20260903233959 69 164 1.0 2.0 0.14 0.84 0.84 96 1017.9
20260903233454 69 76 0.0 0.0 0.12 0.83 0.83 96 1018.5
20260903232949 69 80 0.0 0.0 0.17 0.82 0.82 95 1018.6
20260903232444 69 90 0.0 0.0 0.24 0.81 0.81 95 1018.7
20260903231944 69 123 0.0 0.0 0.19 0.79 0.79 95 1019.2
20260903231439 68 108 1.0 0.0 0.42 0.77 0.77 95 1019.3
20260903230933 68 22 1.0 1.0 0.59 0.76 0.76 95 1019.5
20260903230429 68 94 0.0 0.0 0.54 0.71 0.71 95 1019.8
20260903225925 68 238 0.0 1.0 0.73 0.66 0.66 94 1020.1
20260903225421 68 196 3.0 5.0 0.97 0.61 0.61 94 1020.1
20260903224917 68 244 5.0 6.0 1.25 0.54 0.54 94 1019.4
20260903224413 69 312 3.0 3.0 1.18 0.45 0.45 93 1019.5
20260903223909 69 262 3.0 3.0 0.73 0.31 0.31 92 1018.9
20260903223408 70 8 2.0 2.0 0.71 0.24 0.24 90 1018.6
20260903222907 72 191 2.0 3.0 0.47 0.19 0.19 87 1019.2
20260903222402 76 256 10.0 18.0 0.07 0.12 0.12 80 1019.3
20260903221857 77 314 6.0 7.0 0.00 0.11 0.11 86 1017.9
20260903221355 77 109 0.0 0.0 0.00 0.11 0.11 86 1016.8
20260903220854 77 93 0.0 0.0 0.00 0.11 0.11 86 1016.3
20260903220348 77 74 1.0 1.0 0.00 0.11 0.11 88 1016.1
20260903215846 78 13 0.0 0.0 0.00 0.11 0.11 87 1015.9
20260903215338 78 15 0.0 0.0 0.05 0.11 0.11 86 1015.7
20260903214835 79 73 0.0 0.0 0.05 0.11 0.11 84 1015.7
20260903214332 80 338 4.0 5.0 0.00 0.10 0.10 79 1015.8
20260903213825 80 130 0.0 0.0 0.00 0.10 0.10 80 1016.0
20260903213321 82 288 1.0 1.0 0.00 0.10 0.10 78 1016.5
20260903212817 82 269 3.0 3.0 0.00 0.10 0.10 74 1016.1
20260903212313 83 329 3.0 3.0 0.00 0.10 0.10 73 1015.9
20260903211812 84 303 1.0 1.0 0.00 0.10 0.10 73 1015.6
20260903211309 84 310 1.0 1.0 0.00 0.10 0.10 72 1015.7
20260903210805 85 240 1.0 0.0 0.00 0.10 0.10 72 1015.5
20260903210259 85 266 2.0 2.0 0.00 0.10 0.10 71 1015.3
20260903205753 86 5 1.0 1.0 0.00 0.10 0.10 71 1014.9
20260903205254 87 57 0.0 0.0 0.00 0.10 0.10 68 1014.7
20260903204749 87 13 1.0 1.0 0.00 0.10 0.10 66 1014.7
20260903204245 87 142 2.0 2.0 0.00 0.10 0.10 66 1014.7
20260903203740 88 86 1.0 1.0 0.00 0.10 0.10 66 1015.0
20260903203236 89 341 2.0 2.0 0.00 0.10 0.10 68 1015.0
20260903202734 88 221 1.0 2.0 0.00 0.10 0.10 67 1014.9
20260903202231 86 49 0.0 0.0 0.00 0.10 0.10 72 1014.9
20260903201730 86 293 1.0 1.0 0.00 0.10 0.10 70 1014.9
20260903201226 86 49 2.0 2.0 0.00 0.10 0.10 71 1014.7
20260903200724 86 36 1.0 1.0 0.00 0.10 0.10 70 1015.1
20260903200220 86 248 1.0 1.0 0.00 0.10 0.10 69 1015.0
20260903195715 87 259 3.0 5.0 0.00 0.10 0.10 66 1015.1
20260903195212 87 119 1.0 1.0 0.00 0.10 0.10 69 1015.2
20260903194711 87 332 3.0 5.0 0.00 0.10 0.10 69 1015.4
20260903194207 86 311 1.0 1.0 0.00 0.10 0.10 71 1015.4
20260903193703 87 12 3.0 5.0 0.00 0.10 0.10 68 1015.7
20260903193203 91 204 4.0 9.0 0.00 0.10 0.10 63 1015.7
20260903192659 94 332 3.0 2.0 0.00 0.10 0.10 57 1015.2
20260903192154 93 306 5.0 6.0 0.00 0.10 0.10 57 1015.1
20260903191650 92 6 3.0 3.0 0.00 0.10 0.10 57 1015.2
20260903191150 92 343 4.0 5.0 0.00 0.10 0.10 56 1015.2
20260903190645 94 354 4.0 5.0 0.00 0.10 0.10 53 1015.2
20260903190145 94 335 3.0 3.0 0.00 0.10 0.10 55 1015.6
20260903185640 93 328 4.0 7.0 0.00 0.10 0.10 54 1015.6
20260903185135 93 319 3.0 3.0 0.00 0.10 0.10 55 1015.9
20260903184631 93 47 1.0 1.0 0.00 0.10 0.10 55 1016.1
20260903184127 93 330 3.0 5.0 0.00 0.10 0.10 55 1016.2
20260903183625 93 105 2.0 2.0 0.00 0.10 0.10 53 1015.8
20260903183121 93 271 3.0 3.0 0.00 0.10 0.10 57 1016.0
20260903182620 93 278 1.0 1.0 0.00 0.10 0.10 55 1016.0
20260903182116 93 22 3.0 3.0 0.00 0.10 0.10 57 1016.2
20260903181615 92 342 2.0 3.0 0.00 0.10 0.10 56 1016.2
20260903181114 92 263 5.0 6.0 0.00 0.10 0.10 56 1016.5
20260903180610 92 220 2.0 2.0 0.00 0.10 0.10 57 1016.6
20260903180104 92 325 2.0 2.0 0.00 0.10 0.10 59 1016.1
20260903175603 91 325 3.0 3.0 0.00 0.10 0.10 58 1016.6
20260903175103 91 305 4.0 5.0 0.00 0.10 0.10 56 1016.7
20260903174558 90 321 3.0 3.0 0.00 0.10 0.10 59 1016.7
20260903174052 91 326 5.0 6.0 0.00 0.10 0.10 58 1016.9
20260903173547 92 117 0.0 1.0 0.00 0.10 0.10 59 1016.8
20260903173045 92 177 3.0 3.0 0.00 0.10 0.10 58 1017.1
20260903172544 91 125 1.0 2.0 0.00 0.10 0.10 60 1016.9
20260903172040 91 332 3.0 3.0 0.00 0.10 0.10 62 1017.0
20260903171534 92 338 5.0 7.0 0.00 0.10 0.10 59 1017.1
20260903171030 91 305 1.0 1.0 0.00 0.10 0.10 63 1017.2
20260903170529 91 232 3.0 3.0 0.00 0.10 0.10 62 1017.4
20260903170025 91 328 3.0 5.0 0.00 0.10 0.10 61 1017.4
20260903165517 91 34 2.0 2.0 0.00 0.10 0.10 62 1017.1
20260903165013 91 179 1.0 1.0 0.00 0.10 0.10 61 1017.1
20260903164512 90 209 2.0 2.0 0.00 0.10 0.10 63 1017.2
20260903164008 90 141 5.0 6.0 0.00 0.10 0.10 62 1017.4
20260903163503 90 149 3.0 3.0 0.00 0.10 0.10 64 1017.5
20260903162958 91 267 4.0 6.0 0.00 0.10 0.10 63 1017.6
20260903162449 90 196 2.0 1.0 0.00 0.10 0.10 66 1017.3
20260903161944 90 168 3.0 3.0 0.00 0.10 0.10 63 1017.6
20260903161434 89 281 1.0 2.0 0.00 0.10 0.10 67 1017.5
20260903160930 89 351 1.0 1.0 0.00 0.10 0.10 66 1017.4
20260903160429 89 177 1.0 1.0 0.00 0.10 0.10 65 1017.5
20260903155928 89 161 2.0 3.0 0.00 0.10 0.10 65 1017.6
20260903155423 87 129 1.0 2.0 0.00 0.10 0.10 67 1017.6
20260903154919 87 291 1.0 1.0 0.00 0.10 0.10 70 1017.5
20260903154414 86 318 1.0 1.0 0.00 0.10 0.10 72 1017.6
20260903153909 86 218 2.0 2.0 0.00 0.10 0.10 71 1017.5
20260903153404 86 155 0.0 0.0 0.00 0.10 0.10 71 1017.7
20260903152901 86 74 1.0 1.0 0.00 0.10 0.10 72 1017.7
20260903152356 86 56 1.0 1.0 0.00 0.10 0.10 71 1017.5
20260903151852 85 159 2.0 2.0 0.00 0.10 0.10 71 1017.7
20260903151346 84 161 1.0 1.0 0.00 0.10 0.10 74 1017.5
20260903150841 84 55 1.0 1.0 0.00 0.10 0.10 75 1017.7
20260903150335 84 47 1.0 1.0 0.00 0.10 0.10 75 1017.5
20260903145830 83 84 0.0 0.0 0.00 0.10 0.10 74 1017.6
20260903145326 83 104 0.0 1.0 0.00 0.10 0.10 77 1017.8
20260903144825 83 129 2.0 3.0 0.00 0.10 0.10 76 1017.7
20260903144320 83 233 2.0 3.0 0.00 0.10 0.10 75 1017.5
20260903143816 82 16 3.0 3.0 0.00 0.10 0.10 75 1017.7
20260903143312 82 190 1.0 1.0 0.00 0.10 0.10 76 1017.8
20260903142808 83 70 3.0 3.0 0.00 0.10 0.10 75 1017.7
20260903142306 83 60 1.0 1.0 0.00 0.10 0.10 75 1017.9
20260903141759 83 130 1.0 1.0 0.00 0.10 0.10 74 1017.7
20260903141255 84 95 1.0 1.0 0.00 0.10 0.10 74 1017.8
20260903140754 83 150 4.0 5.0 0.00 0.10 0.10 72 1017.5
20260903140249 83 37 3.0 3.0 0.00 0.10 0.10 74 1017.6
20260903135745 83 145 4.0 5.0 0.00 0.10 0.10 73 1017.7
20260903135240 84 221 1.0 1.0 0.00 0.10 0.10 72 1017.7
20260903134739 83 116 0.0 0.0 0.00 0.10 0.10 75 1017.7
20260903134235 82 137 0.0 0.0 0.00 0.10 0.10 75 1017.7
20260903133732 82 92 1.0 1.0 0.00 0.10 0.10 78 1017.8
20260903133229 80 76 1.0 1.0 0.00 0.10 0.10 80 1017.5
20260903132723 80 131 1.0 2.0 0.00 0.10 0.10 79 1017.9
20260903132218 80 83 1.0 1.0 0.00 0.10 0.10 80 1018.0
20260903131713 79 83 0.0 0.0 0.00 0.10 0.10 82 1017.8
20260903131212 78 81 1.0 1.0 0.00 0.10 0.10 82 1017.7
20260903130707 77 94 1.0 1.0 0.00 0.10 0.10 82 1017.8
20260903130202 76 94 1.0 1.0 0.00 0.10 0.10 85 1018.0
20260903125700 76 89 2.0 2.0 0.00 0.10 0.10 84 1017.9
20260903125155 76 76 2.0 2.0 0.00 0.10 0.10 83 1018.2
20260903124650 77 86 0.0 1.0 0.00 0.10 0.10 86 1018.1
20260903124149 76 100 1.0 1.0 0.00 0.10 0.10 86 1018.0
20260903123649 75 99 1.0 1.0 0.00 0.10 0.10 86 1018.1
20260903123148 74 99 0.0 0.0 0.00 0.10 0.10 87 1018.0
20260903122642 73 119 0.0 0.0 0.00 0.10 0.10 89 1018.1
20260903122137 72 149 0.0 1.0 0.00 0.10 0.10 91 1017.9
20260903121635 71 113 0.0 0.0 0.00 0.10 0.10 93 1017.8
20260903121132 70 131 1.0 1.0 0.00 0.10 0.10 93 1018.1
20260903120630 69 76 1.0 1.0 0.00 0.10 0.10 93 1018.0
20260903120125 69 179 1.0 3.0 0.00 0.10 0.10 93 1017.9
20260903115622 69 108 2.0 3.0 0.00 0.10 0.10 93 1017.9
20260903115113 69 177 3.0 3.0 0.00 0.10 0.10 93 1018.0
20260903114608 69 166 1.0 1.0 0.00 0.10 0.10 93 1018.2
20260903114104 69 162 2.0 2.0 0.00 0.10 0.10 93 1018.3
20260903113559 69 175 3.0 2.0 0.00 0.10 0.10 94 1018.2
20260903113055 69 153 0.0 0.0 0.00 0.10 0.10 94 1018.2
20260903112550 69 171 1.0 1.0 0.00 0.10 0.10 94 1018.4
20260903112045 69 143 1.0 1.0 0.00 0.10 0.10 93 1018.5
20260903111544 69 121 0.0 0.0 0.00 0.10 0.10 93 1018.0
20260903111040 69 159 1.0 1.0 0.00 0.10 0.10 94 1018.0
20260903110535 69 160 1.0 1.0 0.00 0.10 0.10 93 1018.0
20260903110030 69 149 0.0 0.0 0.07 0.10 0.10 93 1018.3
20260903105524 70 149 0.0 0.0 0.31 0.10 0.10 92 1018.3
20260903105020 70 110 1.0 1.0 0.31 0.09 0.09 91 1018.4
20260903104514 71 163 1.0 1.0 0.24 0.05 0.05 89 1018.2
20260903104010 72 117 1.0 2.0 0.24 0.04 0.04 85 1018.2
20260903103505 73 42 2.0 2.0 0.00 0.00 0.00 82 1018.4
20260903103002 73 125 2.0 2.0 0.00 0.00 0.00 81 1018.4
20260903102457 73 21 2.0 2.0 0.00 0.00 0.00 81 1018.3
20260903101955 74 100 1.0 2.0 0.00 0.00 0.00 81 1018.3
20260903101450 74 26 2.0 2.0 0.00 0.00 0.00 82 1018.4
20260903100946 74 46 1.0 1.0 0.00 0.00 0.00 84 1018.5
20260903100441 73 84 0.0 0.0 0.00 0.00 0.00 86 1018.3
20260903095938 73 46 1.0 1.0 0.00 0.00 0.00 87 1017.6
20260903095433 72 151 3.0 2.0 0.00 0.00 0.00 89 1017.8
20260903094927 72 27 3.0 3.0 0.00 0.00 0.00 90 1017.6
20260903094421 71 80 0.0 1.0 0.00 0.00 0.00 91 1017.3
20260903093918 71 104 0.0 0.0 0.00 0.00 0.00 91 1017.2
20260903093418 71 104 0.0 0.0 0.00 0.00 0.00 91 1017.1
20260903092913 71 134 0.0 0.0 0.00 0.00 0.00 91 1017.1
20260903092408 71 134 0.0 0.0 0.00 0.00 0.00 90 1017.0
20260903091907 71 134 0.0 0.0 0.00 0.00 0.00 90 1016.6
20260903091405 71 134 0.0 0.0 0.00 0.00 0.00 89 1016.9
20260903090900 71 134 0.0 0.0 0.00 0.00 0.00 89 1017.2
20260903090356 72 133 0.0 0.0 0.00 0.00 0.00 89 1017.0
20260903085854 72 134 0.0 0.0 0.00 0.00 0.00 88 1016.9
20260903085348 72 182 0.0 0.0 0.00 0.00 0.00 88 1016.9
20260903084847 72 182 0.0 0.0 0.00 0.00 0.00 87 1016.7
20260903084346 72 182 0.0 0.0 0.00 0.00 0.00 86 1016.7
20260903083842 72 182 1.0 1.0 0.00 0.00 0.00 86 1016.9
20260903083337 72 182 0.0 0.0 0.00 0.00 0.00 86 1016.7
20260903082836 72 182 0.0 0.0 0.00 0.00 0.00 86 1016.7
20260903082331 71 182 0.0 0.0 0.00 0.00 0.00 87 1016.6
20260903081827 71 182 0.0 0.0 0.00 0.00 0.00 87 1016.7
20260903081322 71 182 0.0 0.0 0.00 0.00 0.00 87 1016.9
20260903080818 71 182 0.0 0.0 0.00 0.00 0.00 88 1017.0
20260903080316 71 182 0.0 0.0 0.00 0.00 0.00 88 1016.8
20260903075815 71 182 1.0 1.0 0.00 0.00 0.00 88 1017.0
20260903075310 72 183 0.0 0.0 0.00 0.00 0.00 87 1017.1
20260903074809 72 183 1.0 1.0 0.00 0.00 0.00 86 1017.1
20260903074304 72 183 0.0 0.0 0.00 0.00 0.00 86 1017.3
20260903073800 72 183 0.0 0.0 0.00 0.00 0.00 85 1016.9
20260903073255 72 183 0.0 0.0 0.00 0.00 0.00 85 1017.0
20260903072751 72 182 0.0 0.0 0.00 0.00 0.00 84 1017.2
20260903072246 73 183 0.0 0.0 0.00 0.00 0.00 84 1016.9
20260903071738 73 182 0.0 0.0 0.00 0.00 0.00 83 1016.9
20260903071233 73 183 0.0 0.0 0.00 0.00 0.00 82 1016.8
20260903070732 74 183 1.0 0.0 0.00 0.00 0.00 81 1016.9
20260903070228 74 183 0.0 0.0 0.00 0.00 0.00 80 1017.2
20260903065723 75 183 0.0 0.0 0.00 0.00 0.00 78 1017.3
20260903065222 75 183 1.0 0.0 0.00 0.00 0.00 77 1017.3
20260903064721 76 184 0.0 0.0 0.00 0.00 0.00 75 1017.5
20260903064216 77 184 0.0 0.0 0.00 0.00 0.00 73 1017.6
20260903063713 77 185 0.0 0.0 0.00 0.00 0.00 72 1017.6
20260903063202 77 291 0.0 0.0 0.00 0.00 0.00 71 1017.7
20260903062658 78 261 1.0 1.0 0.00 0.00 0.00 70 1017.7
20260903062158 78 192 2.0 2.0 0.00 0.00 0.00 70 1017.7
20260903061654 79 43 1.0 1.0 0.00 0.00 0.00 70 1017.9
20260903061152 80 329 1.0 1.0 0.00 0.00 0.00 70 1017.9
20260903060648 80 208 1.0 2.0 0.00 0.00 0.00 73 1017.9
20260903060143 81 78 2.0 3.0 0.00 0.00 0.00 73 1017.8
20260903055640 81 270 5.0 8.0 0.00 0.00 0.00 75 1017.9
20260903055138 81 337 4.0 5.0 0.00 0.00 0.00 76 1017.8
20260903054633 81 348 2.0 2.0 0.00 0.00 0.00 76 1017.3
20260903054129 81 330 2.0 2.0 0.00 0.00 0.00 76 1017.2
20260903053625 81 22 1.0 1.0 0.00 0.00 0.00 75 1016.9
20260903053121 81 32 1.0 1.0 0.00 0.00 0.00 75 1016.9
20260903052616 81 305 3.0 5.0 0.00 0.00 0.00 75 1016.8
20260903052113 81 13 2.0 2.0 0.00 0.00 0.00 75 1016.9
20260903051612 81 317 2.0 2.0 0.00 0.00 0.00 74 1017.0
20260903051108 81 31 1.0 1.0 0.00 0.00 0.00 75 1016.7
20260903050607 81 193 1.0 2.0 0.00 0.00 0.00 74 1016.5
20260903045601 81 18 3.0 2.0 0.00 0.00 0.00 74 1016.3
20260903045059 81 168 2.0 1.0 0.00 0.00 0.00 74 1016.3
20260903044554 81 298 1.0 1.0 0.00 0.00 0.00 74 1016.2
20260903044049 81 175 1.0 1.0 0.00 0.00 0.00 74 1016.3
20260903043545 81 177 2.0 3.0 0.00 0.00 0.00 74 1016.1
20260903043045 81 154 1.0 1.0 0.00 0.00 0.00 74 1016.1
20260903042539 81 136 1.0 2.0 0.00 0.00 0.00 74 1016.3
20260903042035 81 155 2.0 2.0 0.00 0.00 0.00 74 1016.2
20260903041532 81 42 1.0 1.0 0.00 0.00 0.00 74 1015.8
20260903041027 81 143 0.0 0.0 0.00 0.00 0.00 73 1015.9
20260903040526 81 166 1.0 1.0 0.00 0.00 0.00 73 1015.7
20260903040023 81 239 3.0 5.0 0.00 0.00 0.00 73 1015.6
20260903035517 81 110 0.0 0.0 0.00 0.00 0.00 73 1015.8
20260903035014 81 37 1.0 1.0 0.00 0.00 0.00 73 1015.8
20260903034514 82 228 1.0 1.0 0.00 0.00 0.00 72 1015.8
20260903034008 82 268 1.0 1.0 0.00 0.00 0.00 72 1015.5
20260903033503 82 131 1.0 2.0 0.00 0.00 0.00 71 1015.4
20260903032958 82 181 1.0 2.0 0.00 0.00 0.00 71 1015.5
20260903032453 82 226 1.0 1.0 0.00 0.00 0.00 72 1015.5
20260903031948 82 196 2.0 2.0 0.00 0.00 0.00 72 1015.5
20260903031443 82 243 1.0 1.0 0.00 0.00 0.00 71 1015.5
20260903030938 82 268 2.0 3.0 0.00 0.00 0.00 71 1015.7
20260903030434 82 355 1.0 1.0 0.00 0.00 0.00 71 1016.0
20260903025930 81 97 0.0 1.0 0.00 0.00 0.00 72 1015.8
20260903025425 81 168 2.0 2.0 0.00 0.00 0.00 72 1016.3
20260903024920 81 147 0.0 0.0 0.00 0.00 0.00 73 1016.3
20260903024414 81 154 1.0 1.0 0.00 0.00 0.00 73 1016.5
20260903023909 81 109 0.0 0.0 0.00 0.00 0.00 73 1016.7
20260903023405 80 176 1.0 1.0 0.00 0.00 0.00 74 1016.6
20260903022901 80 138 0.0 1.0 0.00 0.00 0.00 75 1016.8
20260903022359 80 114 0.0 0.0 0.00 0.00 0.00 75 1016.8
20260903021857 80 147 1.0 1.0 0.00 0.00 0.00 76 1016.7
20260903021354 80 145 0.0 0.0 0.00 0.00 0.00 76 1016.5
20260903020853 80 152 0.0 0.0 0.00 0.00 0.00 76 1016.6
20260903020348 80 114 0.0 0.0 0.00 0.00 0.00 76 1016.9
20260903015843 80 172 1.0 1.0 0.00 0.00 0.00 76 1016.7
20260903015338 80 154 1.0 1.0 0.00 0.00 0.00 78 1016.7
20260903014833 80 143 0.0 0.0 0.00 0.00 0.00 78 1016.3
20260903014328 80 173 1.0 1.0 0.00 0.00 0.00 78 1016.7
20260903013823 79 7 1.0 1.0 0.00 0.00 0.00 79 1016.9
20260903013322 79 159 0.0 0.0 0.00 0.00 0.00 81 1016.8
20260903012821 78 172 2.0 1.0 0.00 0.00 0.00 82 1016.7
20260903012315 78 136 0.0 0.0 0.00 0.00 0.00 83 1016.9
20260903011809 78 147 0.0 0.0 0.00 0.00 0.00 84 1016.9
20260903011308 78 147 0.0 0.0 0.00 0.00 0.00 84 1016.8
20260903010803 78 147 0.0 0.0 0.00 0.00 0.00 84 1016.9
20260903010259 78 147 0.0 0.0 0.00 0.00 0.00 83 1016.5
20260903005757 78 147 0.0 0.0 0.00 0.00 0.00 82 1016.5
20260903005252 79 147 0.0 0.0 0.00 0.00 0.00 81 1016.7
20260903004748 79 147 0.0 0.0 0.00 0.00 0.00 80 1016.6
20260903004244 80 147 0.0 0.0 0.00 0.00 0.00 79 1016.3
20260903003739 80 147 0.0 0.0 0.00 0.00 0.00 78 1016.6
20260903003234 80 147 0.0 0.0 0.00 0.00 0.00 77 1016.5
20260903002728 81 147 1.0 1.0 0.00 0.00 0.00 76 1016.3
20260903002223 81 147 0.0 0.0 0.00 0.00 0.00 74 1016.1
20260903001719 82 147 0.0 0.0 0.00 0.00 0.00 73 1016.3
20260903001212 82 147 0.0 0.0 0.00 0.00 0.00 72 1016.2
20260903000708 83 147 0.0 0.0 0.00 0.00 0.00 71 1016.1
20260903000204 83 147 0.0 0.0 0.00 0.00 0.00 70 1016.0
20260902235700 84 147 1.0 1.0 0.00 0.00 0.00 69 1016.1